Погода в Порецком

Россия / Владимирская область     56°16′00″N   40°31′36″E
темп.,
°C
ветер,
м/с
пор.,
м/с
влажн.,
%
обл.,
%
осадки,
мм/ч
давл.,
гПа
погр.,
м
13 мая, чт
чт1300:00+12юв378937 0.0 1020151
03:00+11ююв249595 0.0 1021102
06:00+12юв2695100 0.0 1021311
09:00+16юв468063 0.1 1020893
12:00+20юв47498 0.0 10191539
15:00+14юв4693100 12.4 1017441
18:00+13вюв239295 7.8 1016120
21:00+11в22956 7.8 101738
14 мая, пт
пт1400:00+11ююв229734 0.0 101726
03:00+10юв22967 0.0 101837
06:00+12ююв2692100 0.0 1018167
09:00+16ююв3677100 0.0 1018429
12:00+20ююв466481 0.0 10181055
15:00+22юв5754100 0.0 10171819
18:00+20юв487376 0.5 1015293
21:00+16вюв41189100 1.6 1014212
15 мая, сб
сб1500:00+15юв259597 1.4 101386
03:00+14юв3496100 1.7 101268
06:00+16в3494100 0.4 101183
09:00+19в5784100 0.4 1010416
12:00+20вюв238098 3.7 1010105
15:00+22ю51174100 5.2 10101330
18:00+20ююз611762 0.7 1010985
21:00+15ююз39940 1.6 1012205
16 мая, вс
вс1600:00+13ююз359584 0.0 101291
03:00+12юз34945 0.0 101363
06:00+14ююз269387 0.0 1014161
09:00+18ююз4675100 0.0 1014626
12:00+21ююз595861 0.0 10141794
15:00+22юз610585 0.1 10131963
18:00+19з48690 0.0 1014667
21:00+14юз34820 0.0 101549
17 мая, пн
пн1700:00+13з228953 0.0 101612
03:00+12ссз1188100 0.0 101710
06:00+14в228617 0.0 101782
09:00+19вюв346937 0.0 1018521
12:00+23в345512 0.0 1017991
15:00+25вюв355267 0.0 10161409
18:00+24в37696 0.0 1015271
21:00+17в4129152 0.4 1015206